| time (UTC) | temp F | wind direction | speed knots | gust knots | rain 1hr in | rain 24hr in | rain mn in | humidity % | barometer mb |
| 20260906194615 | 83 | 321 | 0.0 | 2.6 | 0.01 | 0.02 | 0.02 | 73 | 1012.8 |
| 20260906193101 | 83 | 352 | 1.7 | 7.8 | 0.01 | 0.02 | 0.02 | 73 | 1012.9 |
| 20260906191610 | 84 | 88 | 1.7 | 7.8 | 0.01 | 0.02 | 0.02 | 72 | 1013.2 |
| 20260906190054 | 84 | 320 | 0.0 | 7.8 | 0.00 | 0.01 | 0.01 | 75 | 1013.0 |
| 20260906184606 | 84 | 55 | 1.7 | 7.0 | 0.00 | 0.52 | 0.01 | 73 | 1013.3 |
| 20260906183103 | 83 | 46 | 0.0 | 7.0 | 0.00 | 0.52 | 0.01 | 74 | 1013.5 |
| 20260906181556 | 83 | 0 | 1.7 | 7.0 | 0.00 | 0.52 | 0.01 | 73 | 1013.7 |
| 20260906180057 | 82 | 0 | 0.0 | 3.5 | 0.00 | 0.52 | 0.01 | 76 | 1013.7 |
| 20260906174551 | 81 | 44 | 0.9 | 2.6 | 0.00 | 0.52 | 0.01 | 77 | 1013.7 |
| 20260906173055 | 78 | 0 | 0.9 | 2.6 | 0.00 | 0.52 | 0.01 | 82 | 1013.9 |
| 20260906171604 | 75 | 22 | 0.0 | 5.2 | 0.00 | 0.52 | 0.01 | 90 | 1014.4 |
| 20260906170056 | 72 | 0 | 0.0 | 2.6 | 0.00 | 0.52 | 0.01 | 94 | 1014.2 |
| 20260906164601 | 71 | 18 | 0.0 | 0.9 | 0.00 | 0.52 | 0.01 | 94 | 1014.5 |
| 20260906163059 | 70 | 0 | 0.0 | 0.9 | 0.01 | 0.52 | 0.01 | 93 | 1014.7 |
| 20260906161602 | 70 | 331 | 0.0 | 1.7 | 0.01 | 0.52 | 0.01 | 92 | 1014.7 |
| 20260906160056 | 71 | 0 | 0.0 | 4.3 | 0.01 | 0.52 | 0.01 | 92 | 1014.5 |
| 20260906154603 | 72 | 54 | 0.9 | 16.5 | 0.01 | 0.52 | 0.01 | 89 | 1014.9 |
| 20260906153054 | 79 | 0 | 0.0 | 2.6 | 0.00 | 0.51 | 0.00 | 82 | 1015.3 |
| 20260906151554 | 81 | 10 | 0.9 | 2.6 | 0.00 | 0.51 | 0.00 | 79 | 1014.3 |
| 20260906150104 | 80 | 0 | 0.9 | 4.3 | 0.00 | 0.51 | 0.00 | 82 | 1014.0 |
| 20260906144606 | 78 | 0 | 0.0 | 2.6 | 0.00 | 0.51 | 0.00 | 86 | 1014.0 |
| 20260906143055 | 77 | 26 | 0.0 | 0.9 | 0.00 | 0.51 | 0.00 | 86 | 1014.0 |
| 20260906141552 | 77 | 0 | 0.0 | 0.9 | 0.00 | 0.51 | 0.00 | 88 | 1013.8 |
| 20260906140057 | 76 | 0 | 0.0 | 1.7 | 0.00 | 0.51 | 0.00 | 88 | 1013.7 |
| 20260906134554 | 76 | 0 | 0.0 | 2.6 | 0.00 | 0.51 | 0.00 | 88 | 1013.7 |
| 20260906133053 | 76 | 72 | 0.0 | 4.3 | 0.00 | 0.51 | 0.00 | 89 | 1013.6 |
| 20260906131550 | 75 | 59 | 0.0 | 4.3 | 0.00 | 0.51 | 0.00 | 92 | 1013.6 |
| 20260906130054 | 73 | 20 | 0.0 | 2.6 | 0.00 | 0.51 | 0.00 | 95 | 1013.5 |
| 20260906124554 | 72 | 0 | 0.0 | 4.3 | 0.00 | 0.51 | 0.00 | 95 | 1013.4 |
| 20260906123051 | 72 | 32 | 0.0 | 3.5 | 0.00 | 0.51 | 0.00 | 95 | 1013.3 |
| 20260906121549 | 71 | 351 | 0.9 | 4.3 | 0.00 | 0.51 | 0.00 | 96 | 1013.0 |
| 20260906120058 | 71 | 0 | 0.9 | 3.5 | 0.00 | 0.51 | 0.00 | 96 | 1013.0 |
| 20260906114556 | 70 | 28 | 0.0 | 2.6 | 0.00 | 0.51 | 0.00 | 96 | 1012.9 |
| 20260906113100 | 70 | 0 | 0.0 | 3.5 | 0.00 | 0.51 | 0.00 | 96 | 1012.9 |
| 20260906111557 | 69 | 0 | 0.0 | 0.0 | 0.00 | 0.51 | 0.00 | 95 | 1012.8 |
| 20260906110051 | 69 | 0 | 0.0 | 0.0 | 0.00 | 0.51 | 0.00 | 95 | 1012.9 |
| 20260906104603 | 69 | 0 | 0.0 | 0.0 | 0.00 | 0.51 | 0.00 | 95 | 1012.3 |
| 20260906103053 | 69 | 0 | 0.0 | 0.0 | 0.00 | 0.51 | 0.00 | 95 | 1012.2 |
| 20260906101550 | 69 | 0 | 0.0 | 0.0 | 0.00 | 0.51 | 0.00 | 95 | 1011.9 |
| 20260906100052 | 69 | 0 | 0.0 | 0.0 | 0.00 | 0.51 | 0.00 | 95 | 1011.7 |
| 20260906094639 | 69 | 0 | 0.0 | 0.0 | 0.00 | 0.51 | 0.00 | 95 | 1011.5 |
| 20260906093103 | 69 | 0 | 0.0 | 0.0 | 0.00 | 0.51 | 0.00 | 95 | 1011.5 |
| 20260906091555 | 69 | 0 | 0.0 | 0.0 | 0.00 | 0.51 | 0.00 | 95 | 1011.4 |
| 20260906090051 | 70 | 0 | 0.0 | 0.0 | 0.00 | 0.51 | 0.00 | 95 | 1011.2 |
| 20260906084547 | 70 | 0 | 0.0 | 0.0 | 0.00 | 0.51 | 0.00 | 95 | 1011.2 |
| 20260906083053 | 70 | 0 | 0.0 | 0.0 | 0.00 | 0.51 | 0.00 | 95 | 1011.2 |
| 20260906081554 | 70 | 0 | 0.0 | 0.0 | 0.00 | 0.51 | 0.00 | 95 | 1011.2 |
| 20260906080055 | 70 | 0 | 0.0 | 0.0 | 0.00 | 0.51 | 0.00 | 95 | 1011.1 |
| 20260906074554 | 70 | 0 | 0.0 | 0.0 | 0.00 | 0.51 | 0.00 | 95 | 1010.9 |
| 20260906073054 | 71 | 0 | 0.0 | 0.0 | 0.00 | 0.51 | 0.00 | 95 | 1010.8 |
| 20260906071556 | 71 | 0 | 0.0 | 0.0 | 0.00 | 0.51 | 0.00 | 95 | 1011.0 |
| 20260906070059 | 70 | 0 | 0.0 | 0.0 | 0.00 | 0.51 | 0.00 | 95 | 1011.1 |
| 20260906064552 | 71 | 0 | 0.0 | 0.0 | 0.00 | 0.51 | 0.00 | 94 | 1011.2 |
| 20260906063052 | 71 | 0 | 0.0 | 0.0 | 0.00 | 0.51 | 0.00 | 95 | 1011.2 |
| 20260906061554 | 71 | 0 | 0.0 | 0.0 | 0.00 | 0.51 | 0.00 | 95 | 1011.3 |
| 20260906060100 | 71 | 0 | 0.0 | 0.0 | 0.00 | 0.51 | 0.00 | 95 | 1011.3 |
| 20260906054557 | 71 | 0 | 0.0 | 0.0 | 0.00 | 0.51 | 0.00 | 95 | 1011.5 |
| 20260906053050 | 71 | 0 | 0.0 | 0.0 | 0.00 | 0.51 | 0.00 | 95 | 1011.7 |
| 20260906051555 | 71 | 0 | 0.0 | 0.0 | 0.00 | 0.51 | 0.00 | 94 | 1011.8 |
| 20260906050114 | 72 | 0 | 0.0 | 0.0 | 0.00 | 0.51 | 0.00 | 95 | 1011.9 |
| 20260906044554 | 71 | 0 | 0.0 | 0.0 | 0.00 | 0.51 | 0.00 | 94 | 1012.2 |
| 20260906043058 | 71 | 0 | 0.0 | 0.0 | 0.00 | 0.51 | 0.00 | 94 | 1012.2 |
| 20260906041553 | 72 | 0 | 0.0 | 0.0 | 0.00 | 0.51 | 0.00 | 94 | 1012.4 |
| 20260906040121 | 72 | 0 | 0.0 | 0.0 | 0.00 | 0.51 | 0.00 | 94 | 1012.4 |
| 20260906034601 | 72 | 0 | 0.0 | 0.0 | 0.00 | 0.51 | 0.51 | 94 | 1012.5 |
| 20260906033058 | 72 | 0 | 0.0 | 0.0 | 0.00 | 0.51 | 0.51 | 94 | 1012.5 |
| 20260906031555 | 72 | 0 | 0.0 | 0.0 | 0.00 | 0.51 | 0.51 | 94 | 1012.5 |
| 20260906030054 | 72 | 0 | 0.0 | 0.0 | 0.00 | 0.51 | 0.51 | 94 | 1012.5 |
| 20260906024602 | 73 | 0 | 0.0 | 0.0 | 0.00 | 0.51 | 0.51 | 94 | 1012.4 |
| 20260906023052 | 73 | 0 | 0.0 | 0.0 | 0.00 | 0.51 | 0.51 | 94 | 1012.4 |
| 20260906021603 | 73 | 0 | 0.0 | 1.7 | 0.00 | 0.51 | 0.51 | 94 | 1012.5 |
| 20260906020106 | 73 | 0 | 0.0 | 0.0 | 0.00 | 0.51 | 0.51 | 93 | 1012.2 |
| 20260906014558 | 73 | 0 | 0.0 | 0.9 | 0.00 | 0.51 | 0.51 | 93 | 1012.2 |
| 20260906013050 | 74 | 19 | 0.0 | 0.0 | 0.00 | 0.51 | 0.51 | 93 | 1012.1 |
| 20260906011557 | 74 | 0 | 0.0 | 0.0 | 0.00 | 0.51 | 0.51 | 93 | 1011.7 |
| 20260906010106 | 74 | 0 | 0.0 | 0.0 | 0.00 | 0.51 | 0.51 | 93 | 1011.7 |
| 20260906004600 | 74 | 0 | 0.0 | 0.0 | 0.00 | 0.51 | 0.51 | 93 | 1011.7 |
| 20260906003100 | 75 | 0 | 0.0 | 0.0 | 0.00 | 0.51 | 0.51 | 92 | 1011.5 |
| 20260906001606 | 75 | 0 | 0.0 | 0.0 | 0.00 | 0.51 | 0.51 | 91 | 1011.4 |
| 20260906000059 | 76 | 0 | 0.0 | 0.0 | 0.00 | 0.51 | 0.51 | 91 | 1011.1 |
| 20260905234559 | 77 | 0 | 0.0 | 0.0 | 0.00 | 0.51 | 0.51 | 90 | 1011.1 |
| 20260905233108 | 78 | 0 | 0.0 | 0.0 | 0.00 | 0.51 | 0.51 | 87 | 1011.0 |
| 20260905231554 | 79 | 0 | 0.0 | 0.9 | 0.00 | 0.51 | 0.51 | 85 | 1011.0 |
| 20260905230100 | 80 | 0 | 0.0 | 0.9 | 0.00 | 0.51 | 0.51 | 84 | 1011.2 |
| 20260905224601 | 80 | 0 | 0.0 | 0.9 | 0.00 | 0.51 | 0.51 | 84 | 1010.8 |
| 20260905223054 | 79 | 15 | 0.0 | 1.7 | 0.00 | 0.51 | 0.51 | 85 | 1010.8 |
| 20260905221551 | 78 | 0 | 0.0 | 0.9 | 0.00 | 0.51 | 0.51 | 88 | 1010.7 |
| 20260905220104 | 76 | 0 | 0.0 | 0.0 | 0.00 | 0.51 | 0.51 | 90 | 1010.7 |
| 20260905214556 | 75 | 0 | 0.0 | 1.7 | 0.00 | 0.51 | 0.51 | 90 | 1011.1 |
| 20260905213057 | 74 | 0 | 0.0 | 2.6 | 0.00 | 0.51 | 0.51 | 91 | 1011.5 |
| 20260905211555 | 74 | 0 | 0.0 | 0.9 | 0.00 | 0.51 | 0.51 | 92 | 1011.5 |
| 20260905210107 | 73 | 0 | 0.0 | 0.9 | 0.00 | 0.51 | 0.51 | 92 | 1011.6 |
| 20260905204550 | 73 | 23 | 0.0 | 0.9 | 0.00 | 0.51 | 0.51 | 93 | 1011.5 |
| 20260905203056 | 73 | 9 | 0.0 | 0.9 | 0.00 | 0.51 | 0.51 | 93 | 1011.1 |
| 20260905201604 | 73 | 0 | 0.0 | 1.7 | 0.00 | 0.51 | 0.51 | 93 | 1011.2 |
| 20260905200116 | 72 | 0 | 0.0 | 0.9 | 0.00 | 0.51 | 0.51 | 93 | 1012.0 |